View from above orbital plane
|
View from above satellite
|
Ground track
|
The orbit data is extracted from the following two-line orbital elements,
1 43729U 18096L 21020.30884240 .00002159 00000-0 77951-4 0 9993
2 43729 97.4039 99.8086 0018869 81.3909 278.9468 15.29431730119551
Epoch (UTC): | 20 January 2021 07:24:43 |
Eccentricity: | 0.0018869 |
inclination: | 97.4039° |
perigee height: | 464 km |
apogee height: | 490 km |
right ascension of ascending node: | 99.8086° |
argument of perigee: | 81.3909° |
revolutions per day: | 15.29431730 |
mean anomaly at epoch: | 278.9468° |
orbit number at epoch: | 11955 |
The dashed part of the orbit path shows where the satellite is in the earth's shadow,
|
|